0 HST 1 20580U 90037B 25261.05672437 .00006481 00000-0 23415-3 0 9991 2 20580 28.4676 134.9664 0002541 18.9937 341.0752 15.26356338746889 0 ISS (ZARYA) 1 25544U 98067A 25261.15495302 .00009099 00000-0 16508-3 0 9995 2 25544 51.6329 206.2777 0004341 352.6018 7.4906 15.50367586529587 0 CXO 1 25867U 99040B 25259.35019206 .00000941 00000-0 00000-0 0 9993 2 25867 51.3649 125.8051 8285650 310.4265 0.3581 0.37804868 16283